Regional Weather Roundup
Issued by NWS

Home | Current Version | Previous Version | Graphics & Text | Print | Product List | Glossary On
Versions: 1 2 3 4 5 6 7 8 9 10 11 12 13 14 15 16 17 18 19 20 21 22 23 24 25 26 27 28 29 30 31 32 33 34 35 36 37 38 39 40 41 42 43 44 45 46 47 48 49 50
000
ASUS45 KCYS 020510
RWRWY

WYOMING REGIONAL WEATHER ROUNDUP
NATIONAL WEATHER SERVICE CHEYENNE WY
1100 PM MDT MON JUN 01 2015

NOTE:  "FAIR" INDICATES FEW OR NO CLOUDS BELOW 12,000 FEET
WITH NO SIGNIFICANT WEATHER AND/OR OBSTRUCTIONS TO VISIBILITY.

WYZ001-020600-
YELLOWSTONE NATIONAL PARK

CITY           SKY/WX    TMP DP  RH WIND       PRES   REMARKS
LK YELLOWSTONE   N/A     39  37  92 CALM      30.11F
W YELLOWSTONE  NOT AVBL

$$
WYZ002>013-054>058-071-098>099-020600-
NORTHERN WYOMING

CITY           SKY/WX    TMP DP  RH WIND       PRES   REMARKS
JACKSON        FAIR      45  45 100 CALM      30.07F
CODY           FAIR      57  43  58 SW10      29.92F
GREYBULL       CLOUDY    62  51  67 N14G23    29.93F
WORLAND        FAIR      65  46  50 N9        29.91F
SHERIDAN       FAIR      63  52  67 NW25G39   29.88R
BUFFALO        FAIR      62  46  55 SE9       29.91R
GILLETTE       FAIR      61  49  64 SW6       29.85S
HULETT         FAIR      70  45  40 S16G22    29.84R
NEWCASTLE      FAIR      66  45  45 MISG      29.89F

$$
WYZ014>020-022>026-101>103-020600-
CENTRAL WYOMING

CITY           SKY/WX    TMP DP  RH WIND       PRES   REMARKS
BIG PINEY      FAIR      51  39  63 NE9       30.09F
PINEDALE       MOCLDY    50  41  71 W6        30.09F
DUBOIS         FAIR      46  39  76 NW9       30.06F
LANDER         FAIR      59  43  55 N15       29.98R
RIVERTON       FAIR      59  43  55 NW18G28   29.98F
CASPER         FAIR      57  46  66 W8        29.92F
DOUGLAS        FAIR      58  50  75 S8        29.92F

$$
WYZ021-027>030-104>119-020600-
SOUTHERN WYOMING

CITY           SKY/WX    TMP DP  RH WIND       PRES   REMARKS
EVANSTON       FAIR      52  39  61 NW9       30.09S
KEMMERER       FAIR      50  36  57 N12       30.08F
FORT BRIDGER   CLEAR     52  41  66 S7        30.13R
ROCK SPRINGS   FAIR      55  38  52 N14       30.07R
DIXON          FAIR      58  43  56 E7        30.05R
RAWLINS        FAIR      56  47  71 N12       30.07R
SARATOGA       FAIR      55  43  62 SE7       30.08S
LARAMIE        FAIR      52  44  74 E12       30.10F
CHEYENNE       FAIR      61  48  62 MISG      30.03F
TORRINGTON     MOCLDY    66  52  60 NW10      29.97R
PINE BLUFFS    FAIR      59  50  72 CALM      30.02R

$$


USA.gov is the U.S. government's official web portal to all federal, state and local government web resources and services.